Location: *
(17.3280°S, 114.7300°W)
Time: 07:26:35
(UTC+00:00)

Meteor 2-1 Rocket - Pass Details

Date: 05 August 2020
Orbit: 830 x 907 km, 81.3° (Epoch: 20 September)

Event Time Altitude Azimuth Distance (km) Brightness Sun altitude
Rises 12:54:26 0° 195° (SSW) 3,407 7.1 -16.6°
Reaches altitude 10° 12:56:54 10° 199° (SSW) 2,475 6.3 -16.0°
Maximum altitude 13:02:18 51° 274° (W) 1,068 4.4 -14.8°
Drops below altitude 10° 13:07:46 10° 348° (NNW) 2,499 6.7 -13.5°
Sets 13:10:17 0° 353° (N) 3,442 7.5 -12.9°
